This is the latest recevied weather packets stored in our database for station/object G4KVI. If no packets are shown the sender has not sent any weather packets the latest 10 day(s).
| Time | Temp. | Humidity | Pressure | Rain* | Wind** | Luminosity | Snow |
|---|---|---|---|---|---|---|---|
| 1787665804 | 24.44° C | 46% | 1013.4 hPa | 0 mm | - | 232 W/m² | - |
| 1787665504 | 24.44° C | 47% | 1013.3 hPa | 0 mm | - | 265 W/m² | - |
| 1787665204 | 24.44° C | 47% | 1013.2 hPa | 0 mm | - | 341 W/m² | - |
| 1787664904 | 24.44° C | 46% | 1013.3 hPa | 0 mm | - | 269 W/m² | - |
| 1787664604 | 24.44° C | 46% | 1013.3 hPa | 0 mm | - | 258 W/m² | - |
| 1787664304 | 25° C | 46% | 1013.3 hPa | 0 mm | - | 348 W/m² | - |
| 1787664004 | 25° C | 46% | 1013.4 hPa | 0 mm | - | 394 W/m² | - |
| 1787663704 | 25° C | 45% | 1013.1 hPa | 0 mm | - | 454 W/m² | - |
| 1787663404 | 24.44° C | 46% | 1013.5 hPa | 0 mm | - | 393 W/m² | - |
| 1787663104 | 24.44° C | 46% | 1013.3 hPa | 0 mm | - | 248 W/m² | - |
| 1787662804 | 25° C | 45% | 1013.3 hPa | 0 mm | - | 333 W/m² | - |
| 1787662504 | 25° C | 46% | 1013.2 hPa | 0 mm | - | 797 W/m² | - |
| 1787662204 | 24.44° C | 46% | 1013.2 hPa | 0 mm | - | 529 W/m² | - |
| 1787661904 | 24.44° C | 45% | 1013.3 hPa | 0 mm | - | 727 W/m² | - |
| 1787661604 | 24.44° C | 46% | 1013.5 hPa | 0 mm | - | 832 W/m² | - |
| 1787661304 | 24.44° C | 46% | 1013.4 hPa | 0 mm | - | 324 W/m² | - |
| 1787661004 | 24.44° C | 47% | 1013.2 hPa | 0 mm | - | 466 W/m² | - |
| 1787660704 | 23.89° C | 48% | 1013.4 hPa | 0 mm | - | 816 W/m² | - |
| 1787660404 | 23.89° C | 48% | 1013.6 hPa | 0 mm | - | 834 W/m² | - |
| 1787660104 | 23.33° C | 48% | 1013.4 hPa | 0 mm | - | 495 W/m² | - |
| 1787659804 | 23.33° C | 48% | 1013.6 hPa | 0 mm | - | 364 W/m² | - |
| 1787659504 | 23.89° C | 48% | 1013.6 hPa | 0 mm | - | 270 W/m² | - |
| 1787659204 | 23.89° C | 48% | 1013.9 hPa | 0 mm | - | 334 W/m² | - |
| 1787658904 | 23.33° C | 49% | 1013.7 hPa | 0 mm | - | 525 W/m² | - |
| 1787658604 | 23.33° C | 50% | 1013.8 hPa | 0 mm | - | 383 W/m² | - |
* Rain latest hour (hover to see other rain measurements)
** Current wind speed in m/s (hover to see current wind gust speed)